Geneva, Switzerland

10:04 AM CET on January 20, 2017 (GMT +0100)
Cointrin

Weather History for LSGG - December, 2013

Change the Weather History Date:

Wednesday, December 25, 2013

  Actual Average Record
Temperature  
Mean Temperature 45 °F -  
Max Temperature 53 °F 38 °F 55 °F (1997)
Min Temperature 37 °F 28 °F 19 °F (1998)
Degree Days  
Heating Degree Days 20    
Moisture  
Dew Point 40 °F    
Average Humidity 80    
Maximum Humidity 100    
Minimum Humidity 25    
Precipitation  
Precipitation 0.98 in 0.10 in - ()
Sea Level Pressure  
Sea Level Pressure 29.38 in    
Wind  
Wind Speed 7 mph ()    
Max Wind Speed 26 mph    
Max Gust Speed 38 mph    
Visibility 5.7 miles    
Events Rain    
Averages and records for this station are not official NWS values.
T = Trace of Precipitation, MM = Missing Value Source: Averaged Metar Reports

Daily Weather History Graph

Daily Weather History Graph

Search for Another Location

Airport or City:

Trip Planner

Search our weather history database for the weather conditions in past years. The results will help you decide how hot, cold, wet, or windy it might be!

Date:

Astronomy

Dec. 25, 2013 Rise Set
Actual Time 8:17 AM CET 4:54 PM CET
Civil Twilight 7:42 AM CET 5:29 PM CET
Nautical Twilight 7:04 AM CET 6:07 PM CET
Astronomical Twilight 6:27 AM CET 6:43 PM CET
Moon 12:09 AM CET (12/25) 12:08 PM CET (12/25)
Length of Visible Light 9h 46m
Length of Day
8h 37m
Waning Gibbous, 51% of the Moon is Illuminated
Dec 25
Waning Gibbous
Dec 25
Last Quarter
Jan 1
New
Jan 8
First Quarter
Jan 16
Full

Hourly Weather History & Observations

Time (CET) Temp. Windchill Dew Point Humidity Pressure Visibility Wind Dir Wind Speed Gust Speed Precip Events Conditions
12:00 AM 58 °F - 32 °F 25% 29.42 in - SW 11.5 mph - -  
12:20 AM 57.2 °F - 33.8 °F 41% 29.42 in 6.2 mi SW 8.1 mph - N/A   Mostly Cloudy
12:50 AM 53.6 °F - 33.8 °F 47% 29.42 in 6.2 mi WSW 2.3 mph - N/A   Mostly Cloudy
1:00 AM 54 °F - 33 °F 33% 29.40 in 44 mi WSW 4.6 mph - -   Scattered Clouds
1:20 AM 55.4 °F - 35.6 °F 47% 29.39 in 6.2 mi SW 9.2 mph - N/A   Mostly Cloudy
1:50 AM 57.2 °F - 35.6 °F 44% 29.36 in 6.2 mi SW 17.3 mph 28.8 mph N/A   Mostly Cloudy
2:00 AM 57 °F - 35 °F 32% 29.36 in - SW 20.7 mph - -  
2:50 AM 57.2 °F - 39.2 °F 51% 29.39 in 6.2 mi SW 26.5 mph 38.0 mph N/A Rain Rain
3:00 AM 56 °F - 38 °F 40% 29.38 in - SW 25.3 mph - -  
3:20 AM 55.4 °F - 42.8 °F 63% 29.39 in 6.2 mi SW 18.4 mph 31.1 mph N/A Rain Rain
3:50 AM 53.6 °F - 42.8 °F 67% 29.39 in 6.2 mi SSW 8.1 mph - N/A Rain Light Rain
4:00 AM 53 °F - 42 °F 56% 29.39 in 9 mi SSW 11.5 mph - - Rain Light Rain
4:20 AM 51.8 °F - 44.6 °F 76% 29.36 in 6.2 mi SW 6.9 mph - N/A Rain Light Rain
4:50 AM 50.0 °F - 44.6 °F 82% 29.36 in 6.2 mi West 2.3 mph - N/A   Mostly Cloudy
5:00 AM 51 °F - 42 °F 63% 29.37 in - West 4.6 mph - -  
5:20 AM 50.0 °F - 42.8 °F 76% 29.36 in 6.2 mi South 2.3 mph - N/A   Mostly Cloudy
5:50 AM 51.8 °F - 42.8 °F 71% 29.36 in 6.2 mi South 2.3 mph - N/A   Mostly Cloudy
6:00 AM 51 °F - 42 °F 63% 29.37 in - South 3.5 mph - -  
6:20 AM 53.6 °F - 41.0 °F 62% 29.36 in 6.2 mi SSW 6.9 mph - N/A Rain Light Rain
6:50 AM 53.6 °F - 42.8 °F 67% 29.36 in 6.2 mi SW 11.5 mph - N/A Rain Light Rain
7:00 AM 52 °F - 42 °F 60% 29.37 in 19 mi WSW 6.9 mph - - Rain Light Rain
7:20 AM 53.6 °F - 42.8 °F 67% 29.36 in 6.2 mi SW 8.1 mph - N/A Rain Light Rain
7:50 AM 51.8 °F - 42.8 °F 71% 29.33 in 6.2 mi SSW 5.8 mph - N/A Rain Light Rain
8:00 AM 51 °F - 43 °F 65% 29.35 in - SW 5.8 mph - -  
8:20 AM 50.0 °F - 44.6 °F 82% 29.33 in 6.2 mi SSW 9.2 mph - N/A Rain Rain
8:50 AM 50.0 °F - 44.6 °F 82% 29.33 in 6.2 mi SSW 12.7 mph - N/A Rain Rain
9:00 AM 50 °F - 44 °F 71% 29.35 in - SSW 8.1 mph - -  
9:20 AM 50.0 °F - 44.6 °F 82% 29.36 in 6.2 mi South 6.9 mph - N/A Rain Rain
9:50 AM 50.0 °F - 44.6 °F 82% 29.33 in 6.2 mi SW 5.8 mph - N/A Rain Light Rain
10:00 AM 49 °F - 44 °F 77% 29.34 in 11 mi SW 4.6 mph - - Rain Light Rain
10:20 AM 48.2 °F - 46.4 °F 93% 29.33 in 6.2 mi SW 4.6 mph - N/A Rain Light Rain
10:50 AM 46.4 °F - 46.4 °F 100% 29.33 in 6.2 mi Calm Calm - N/A Rain Light Rain
11:00 AM 48 °F - 46 °F 90% 29.34 in - NNW 2.3 mph - -  
11:20 AM 46.4 °F 45.2 °F 46.4 °F 100% 29.33 in 3.1 mi Variable 3.5 mph - N/A Rain Rain
11:50 AM 44.6 °F 37.8 °F 41.0 °F 87% 29.36 in 5.0 mi SSW 15.0 mph - N/A Rain Rain
12:00 PM 45 °F - 41 °F 80% 29.40 in - SSW 20.7 mph - -  
12:20 PM 44.6 °F 37.2 °F 41.0 °F 87% 29.39 in 4.3 mi SSW 17.3 mph - N/A Rain Rain
12:50 PM 42.8 °F 35.1 °F 42.8 °F 100% 29.39 in 6.2 mi South 16.1 mph - N/A Rain Light Rain
1:00 PM 44 °F - 41 °F 84% 29.42 in 5 mi SSW 13.8 mph - - Rain Rain
1:20 PM 42.8 °F 36.2 °F 41.0 °F 93% 29.39 in 3.7 mi SSW 12.7 mph - N/A Rain Rain
1:50 PM 42.8 °F 38.0 °F 42.8 °F 100% 29.42 in 4.3 mi SW 8.1 mph - N/A Rain Rain
2:00 PM 43 °F - 41 °F 90% 29.44 in - WSW 5.8 mph - -  
2:20 PM 42.8 °F 39.3 °F 41.0 °F 93% 29.42 in 3.7 mi West 5.8 mph - N/A Rain Rain
2:50 PM 41.0 °F 36.4 °F 39.2 °F 93% 29.42 in 3.7 mi West 6.9 mph - N/A Rain Rain
3:00 PM 41 °F - 38 °F 85% 29.46 in - WNW 8.1 mph - -  
3:20 PM 39.2 °F 37.0 °F 37.4 °F 93% 29.42 in 3.7 mi Variable 3.5 mph - N/A Rain Rain
3:50 PM 37.4 °F - 37.4 °F 100% 29.42 in 3.7 mi Variable 2.3 mph - N/A Rain Rain
4:00 PM 38 °F - 36 °F 87% 29.46 in 4 mi NW 5.8 mph - - Rain Rain
4:20 PM 37.4 °F 34.9 °F 37.4 °F 100% 29.42 in 4.3 mi Variable 3.5 mph - N/A Rain Light Rain
4:50 PM 37.4 °F - 37.4 °F 100% 29.42 in 4.3 mi Variable 2.3 mph - N/A Rain Light Rain
5:00 PM 39 °F - 36 °F 87% 29.45 in - NW 2.3 mph - -  
5:20 PM 39.2 °F - 37.4 °F 93% 29.39 in 4.3 mi Calm Calm - N/A Rain Light Rain
5:50 PM 39.2 °F - 37.4 °F 93% 29.42 in 5.0 mi Variable 2.3 mph - N/A Rain Light Rain
6:00 PM 39 °F - 36 °F 87% 29.44 in - North 2.3 mph - -  
6:20 PM 37.4 °F - 37.4 °F 100% 29.39 in 5.6 mi Calm Calm - N/A Rain Light Rain
6:50 PM 39.2 °F - 37.4 °F 93% 29.39 in 6.2 mi Variable 1.2 mph - N/A Rain Light Rain
7:00 PM 39 °F - 38 °F 92% 29.42 in 6 mi ENE 3.5 mph - - Rain Light Rain
7:20 PM 39.2 °F - 39.2 °F 100% 29.36 in 6.2 mi Calm Calm - N/A   Mostly Cloudy
7:50 PM 39.2 °F - 39.2 °F 100% 29.36 in 6.2 mi Variable 2.3 mph - N/A   Mostly Cloudy
8:00 PM 40 °F - 38 °F 88% 29.39 in - NNE 2.3 mph - -  
8:20 PM 39.2 °F - 39.2 °F 100% 29.36 in 6.2 mi Variable 1.2 mph - N/A Rain Light Rain
8:50 PM 39.2 °F - 39.2 °F 100% 29.36 in 6.2 mi Calm Calm - N/A Rain Light Rain
9:00 PM 40 °F - 38 °F 88% 29.39 in - NNW 2.3 mph - -  
9:20 PM 39.2 °F - 39.2 °F 100% 29.36 in 5.0 mi Variable 1.2 mph - N/A Rain Light Rain
9:50 PM 39.2 °F - 39.2 °F 100% 29.36 in 3.7 mi Variable 1.2 mph - N/A Rain Rain
10:00 PM 39 °F - 38 °F 92% 29.39 in 4 mi West 2.3 mph - - Rain Rain
10:20 PM 39.2 °F - 39.2 °F 100% 29.36 in 5.0 mi Calm Calm - N/A Rain Rain
10:50 PM 37.4 °F - 37.4 °F 100% 29.33 in 3.7 mi Variable 2.3 mph - N/A Rain Rain
11:00 PM 39 °F - 37 °F 92% 29.38 in - NE 3.5 mph - -  
11:20 PM 37.4 °F - 37.4 °F 100% 29.33 in 4.3 mi Variable 1.2 mph - N/A Rain Light Rain
11:50 PM 37.4 °F - 37.4 °F 100% 29.33 in 3.7 mi Calm Calm - N/A Rain Light Rain